| time (UTC) | temp F | wind direction | speed MPH | gust MPH | rain 1hr in | rain 24hr in | rain mn in | humidity % | barometer mb |
| 20260506044543 | 55 | 320 | 8.0 | 15.0 | 0.00 | 0.00 | 0.00 | 81 | 1010.7 |
| 20260506043039 | 55 | 356 | 10.0 | 18.0 | 0.00 | 0.00 | 0.00 | 81 | 1010.7 |
| 20260506041542 | 56 | 330 | 9.0 | 15.0 | 0.00 | 0.00 | 0.00 | 82 | 1010.6 |
| 20260506040040 | 56 | 28 | 12.0 | 20.0 | 0.00 | 0.00 | 0.00 | 82 | 1010.3 |
| 20260506034536 | 57 | 21 | 13.0 | 19.0 | 0.00 | 0.00 | 0.00 | 82 | 1010.6 |
| 20260506033049 | 57 | 5 | 13.0 | 18.0 | 0.00 | 0.00 | 0.00 | 82 | 1010.4 |
| 20260506031542 | 57 | 5 | 9.0 | 17.0 | 0.00 | 0.00 | 0.00 | 83 | 1010.1 |
| 20260506030040 | 57 | 19 | 9.0 | 15.0 | 0.00 | 0.00 | 0.00 | 84 | 1010.1 |
| 20260506024537 | 58 | 2 | 9.0 | 18.0 | 0.00 | 0.00 | 0.00 | 84 | 1009.8 |
| 20260506023049 | 58 | 4 | 9.0 | 21.0 | 0.00 | 0.00 | 0.00 | 85 | 1009.4 |
| 20260506021540 | 58 | 343 | 14.0 | 20.0 | 0.00 | 0.00 | 0.00 | 84 | 1008.6 |
| 20260506020108 | 59 | 10 | 13.0 | 21.0 | 0.00 | 0.00 | 0.00 | 84 | 1007.7 |
| 20260506014534 | 59 | 348 | 13.0 | 20.0 | 0.00 | 0.00 | 0.00 | 84 | 1007.7 |
| 20260506013034 | 60 | 330 | 13.0 | 20.0 | 0.00 | 0.00 | 0.00 | 84 | 1007.4 |
| 20260506011541 | 61 | 18 | 10.0 | 20.0 | 0.00 | 0.00 | 0.00 | 84 | 1007.1 |
| 20260506010040 | 62 | 345 | 13.0 | 20.0 | 0.00 | 0.00 | 0.00 | 82 | 1006.4 |
| 20260506004542 | 63 | 337 | 13.0 | 19.0 | 0.00 | 0.00 | 0.00 | 81 | 1006.8 |
| 20260506003035 | 64 | 349 | 12.0 | 19.0 | 0.00 | 0.00 | 0.00 | 80 | 1006.5 |
| 20260506001544 | 66 | 3 | 13.0 | 19.0 | 0.00 | 0.00 | 0.00 | 79 | 1006.1 |
| 20260506000056 | 67 | 317 | 9.0 | 14.0 | 0.00 | 0.00 | 0.00 | 79 | 1006.1 |
| 20260505234542 | 67 | 324 | 8.0 | 14.0 | 0.00 | 0.00 | 0.00 | 78 | 1006.5 |
| 20260505233034 | 68 | 304 | 8.0 | 19.0 | 0.00 | 0.00 | 0.00 | 78 | 1006.0 |
| 20260505231538 | 69 | 326 | 7.0 | 17.0 | 0.00 | 0.00 | 0.00 | 76 | 1005.9 |
| 20260505230049 | 70 | 318 | 5.0 | 15.0 | 0.00 | 0.00 | 0.00 | 75 | 1006.1 |
| 20260505224546 | 71 | 343 | 5.0 | 13.0 | 0.00 | 0.00 | 0.00 | 75 | 1006.0 |
| 20260505223039 | 72 | 342 | 4.0 | 12.0 | 0.00 | 0.00 | 0.00 | 74 | 1005.7 |
| 20260505221547 | 72 | 352 | 7.0 | 14.0 | 0.00 | 0.00 | 0.00 | 73 | 1005.3 |
| 20260505220058 | 73 | 295 | 7.0 | 16.0 | 0.00 | 0.00 | 0.00 | 73 | 1005.0 |
| 20260505214546 | 75 | 306 | 6.0 | 14.0 | 0.00 | 0.00 | 0.00 | 70 | 1005.0 |
| 20260505213039 | 77 | 326 | 4.0 | 11.0 | 0.00 | 0.00 | 0.00 | 68 | 1004.7 |
| 20260505211604 | 77 | 303 | 3.0 | 13.0 | 0.00 | 0.00 | 0.00 | 68 | 1005.0 |
| 20260505210043 | 79 | 302 | 4.0 | 10.0 | 0.00 | 0.00 | 0.00 | 65 | 1005.1 |
| 20260505204555 | 81 | 277 | 5.0 | 11.0 | 0.00 | 0.00 | 0.00 | 64 | 1005.0 |
| 20260505203039 | 83 | 274 | 4.0 | 16.0 | 0.00 | 0.00 | 0.00 | 60 | 1004.8 |
| 20260505201542 | 82 | 255 | 6.0 | 15.0 | 0.00 | 0.00 | 0.00 | 57 | 1004.7 |
| 20260505200039 | 82 | 283 | 8.0 | 16.0 | 0.00 | 0.00 | 0.00 | 50 | 1004.8 |
| 20260505194539 | 81 | 273 | 5.0 | 13.0 | 0.00 | 0.00 | 0.00 | 52 | 1004.6 |
| 20260505193044 | 82 | 265 | 4.0 | 20.0 | 0.00 | 0.00 | 0.00 | 50 | 1004.6 |
| 20260505191537 | 83 | 224 | 12.0 | 24.0 | 0.00 | 0.00 | 0.00 | 63 | 1004.4 |
| 20260505190041 | 82 | 234 | 9.0 | 16.0 | 0.00 | 0.00 | 0.00 | 70 | 1004.2 |
| 20260505184542 | 81 | 253 | 10.0 | 19.0 | 0.00 | 0.00 | 0.00 | 68 | 1004.2 |
| 20260505183038 | 81 | 219 | 11.0 | 20.0 | 0.00 | 0.00 | 0.00 | 68 | 1004.0 |
| 20260505181552 | 81 | 229 | 13.0 | 18.0 | 0.00 | 0.00 | 0.00 | 67 | 1004.2 |
| 20260505180037 | 81 | 201 | 10.0 | 17.0 | 0.00 | 0.00 | 0.00 | 68 | 1004.3 |
| 20260505174543 | 81 | 208 | 12.0 | 20.0 | 0.00 | 0.00 | 0.00 | 68 | 1004.2 |
| 20260505173039 | 82 | 230 | 9.0 | 19.0 | 0.00 | 0.00 | 0.00 | 69 | 1004.2 |
| 20260505171541 | 80 | 220 | 13.0 | 21.0 | 0.00 | 0.00 | 0.00 | 70 | 1004.3 |
| 20260505170044 | 79 | 199 | 9.0 | 20.0 | 0.00 | 0.00 | 0.00 | 76 | 1003.9 |
| 20260505164540 | 78 | 214 | 8.0 | 17.0 | 0.00 | 0.00 | 0.00 | 75 | 1003.8 |
| 20260505163040 | 77 | 156 | 8.0 | 15.0 | 0.00 | 0.00 | 0.00 | 78 | 1003.9 |
| 20260505161538 | 76 | 197 | 8.0 | 15.0 | 0.00 | 0.00 | 0.00 | 79 | 1003.8 |
| 20260505153046 | 75 | 173 | 9.0 | 17.0 | 0.00 | 0.00 | 0.00 | 79 | 1003.4 |
| 20260505151538 | 75 | 221 | 11.0 | 21.0 | 0.00 | 0.00 | 0.00 | 79 | 1003.4 |
| 20260505124557 | 69 | 189 | 10.0 | 16.0 | 0.00 | 0.00 | 0.00 | 90 | 1002.7 |
| 20260505123059 | 69 | 193 | 10.0 | 18.0 | 0.00 | 0.00 | 0.00 | 91 | 1002.5 |
| 20260505121538 | 68 | 174 | 10.0 | 20.0 | 0.00 | 0.00 | 0.00 | 91 | 1002.5 |
| 20260505120059 | 68 | 171 | 11.0 | 18.0 | 0.00 | 0.00 | 0.00 | 91 | 1002.2 |
| 20260505114544 | 68 | 170 | 13.0 | 17.0 | 0.00 | 0.00 | 0.00 | 91 | 1002.2 |
| 20260505113039 | 68 | 161 | 10.0 | 16.0 | 0.00 | 0.00 | 0.00 | 90 | 1002.2 |
| 20260505111539 | 69 | 169 | 11.0 | 17.0 | 0.00 | 0.00 | 0.00 | 90 | 1002.2 |
| 20260505101538 | 70 | 165 | 12.0 | 20.0 | 0.00 | 0.00 | 0.00 | 87 | 1002.3 |
| 20260505100041 | 70 | 164 | 11.0 | 22.0 | 0.00 | 0.00 | 0.00 | 86 | 1002.4 |
| 20260505094539 | 71 | 157 | 13.0 | 19.0 | 0.00 | 0.00 | 0.00 | 85 | 1002.2 |
| 20260505093037 | 71 | 164 | 15.0 | 21.0 | 0.00 | 0.00 | 0.00 | 84 | 1002.2 |
| 20260505091552 | 71 | 169 | 12.0 | 21.0 | 0.00 | 0.00 | 0.00 | 83 | 1002.4 |
| 20260505090044 | 72 | 167 | 14.0 | 25.0 | 0.00 | 0.00 | 0.00 | 82 | 1002.5 |
| 20260505084539 | 72 | 159 | 13.0 | 20.0 | 0.00 | 0.00 | 0.00 | 81 | 1002.7 |
| 20260505083054 | 72 | 179 | 13.0 | 20.0 | 0.00 | 0.00 | 0.00 | 81 | 1002.4 |
| 20260505081548 | 72 | 165 | 13.0 | 19.0 | 0.00 | 0.00 | 0.00 | 80 | 1002.6 |
| 20260505080038 | 73 | 150 | 13.0 | 21.0 | 0.00 | 0.00 | 0.00 | 79 | 1002.6 |
| 20260505074537 | 73 | 155 | 15.0 | 24.0 | 0.00 | 0.00 | 0.00 | 78 | 1003.0 |
| 20260505073037 | 73 | 200 | 13.0 | 23.0 | 0.00 | 0.00 | 0.00 | 78 | 1003.3 |
| 20260505071540 | 73 | 214 | 14.0 | 20.0 | 0.00 | 0.00 | 0.00 | 78 | 1003.5 |
| 20260505070039 | 73 | 165 | 13.0 | 19.0 | 0.00 | 0.00 | 0.00 | 79 | 1003.8 |
| 20260505064551 | 72 | 173 | 10.0 | 16.0 | 0.00 | 0.00 | 0.00 | 80 | 1003.9 |
| 20260505063037 | 72 | 163 | 11.0 | 17.0 | 0.00 | 0.00 | 0.00 | 81 | 1004.1 |
| 20260505061540 | 72 | 177 | 10.0 | 16.0 | 0.00 | 0.00 | 0.00 | 81 | 1004.2 |
| 20260505060039 | 72 | 160 | 11.0 | 16.0 | 0.00 | 0.00 | 0.00 | 80 | 1004.3 |